Location: Canquisqu�len
(47.9979°N, 3.3180°W)
Time: 21:24:37
(UTC+00:00)

Daily predictions for brighter satellites

Satellite Brightness Start Highest point End
(mag) Time Altitude Azimuth Time Altitude Azimuth Time Altitude Azimuth
In-Cosmos 22 Rocket 4.3 19:31:45 10° N 19:37:37 73° ENE 19:43:25 10° SSE
Cosmos 1464 Rocket 4.2 19:32:38 10° S 19:38:57 84° W 19:45:14 10° N
SAR-Lupe-1 4.1 19:36:27 10° NNE 19:40:04 87° WNW 19:43:39 10° SSW
Cosmos 2237 Rocket 3.6 19:35:49 10° N 19:40:20 24° NE 19:44:49 10° E
Exosat Rocket 4.4 19:34:51 10° NNW 19:41:32 46° NE 19:46:39 10° SE
BREEZE-M DEB (TANK) 3.8 19:36:27 10° WSW 19:41:53 61° SSE 19:46:35 10° E
SJ-6B 2.8 19:38:42 10° SSE 19:42:21 55° ENE 19:46:03 10° N
Meteor 2-10 Rocket 3.7 19:38:00 10° S 19:43:06 56° E 19:48:26 10° NNE
BREEZE-M DEB (TANK) 3.6 19:40:59 10° SW 19:43:46 56° SSE 19:50:19 10° ENE
SL-8 R/B 3.8 19:38:57 10° W 19:43:49 84° SSW 19:48:40 10° ESE
Cosmos 2026 Rocket 4.2 19:42:50 10° N 19:48:42 48° ENE 19:54:35 10° SSE
Cosmos 405 3.3 19:45:58 10° SSE 19:49:15 42° E 19:52:34 10° NNE
OBJECT-B 0.8 19:47:32 10° SSE 19:50:43 64° ENE 19:53:56 10° N
IRS-1A Rocket 4.4 19:45:51 10° SSE 19:51:18 59° ENE 19:56:54 10° N
SL-27 R/B 4.4 19:49:42 10° SW 19:52:57 35° WNW 19:56:10 10° N
BREEZE-M DEB (TANK) 3.6 19:49:22 10° SW 19:53:11 82° SSE 20:06:37 10° ENE
CZ-4 R/B 4.3 19:50:21 10° SW 19:53:34 21° W 19:56:47 10° NW
NOSS 3-4 (A) 3.5 19:48:07 10° SW 19:53:59 85° NW 20:00:22 10° NE
NOSS 3-4 (C) 3.5 19:48:14 10° SW 19:54:05 86° NW 20:00:28 10° NE
Cosmos 1892 2.6 19:51:37 10° N 19:55:25 88° E 19:59:11 10° S
Cosmos 2227 Rocket 4.0 19:57:33 10° E 19:58:10 10° E 19:58:46 10° E
Cosmos 1606 Rocket 3.8 19:54:47 10° SSW 19:59:09 76° W 20:03:31 10° N
Cosmos 2322 Rocket 4.2 19:55:03 10° NW 19:59:48 28° WSW 20:04:31 10° SSW
Cosmos 2098 Rocket 4.4 19:52:47 10° N 19:59:49 78° E 20:07:16 10° SSE
Cosmos 2251 Rocket 4.1 19:56:42 10° SSE 20:01:35 37° ESE 20:06:27 10° NE
Cosmos 389 Rocket 4.1 20:00:15 12° ESE 20:02:01 17° E 20:04:20 10° NE
Cosmos 2333 Rocket 2.3 19:58:38 10° NNW 20:04:26 86° WSW 20:10:10 10° SSE
Cosmos 2297 Rocket 3.7 20:02:12 11° SE 20:05:16 16° E 20:08:31 10° ENE
BREEZE-M DEB (TANK) 1.9 20:03:41 10° WNW 20:06:21 62° N 20:08:17 13° E
Cosmos 1634 Rocket 4.1 20:00:25 10° SSE 20:06:31 56° E 20:12:36 10° NNE
ATLAS 2AS CENTAUR R/B 3.0 19:59:41 10° SSW 20:07:35 81° SE 20:15:23 10° NE
Cosmos 1825 2.3 20:04:25 10° N 20:08:10 56° ENE 20:11:52 10° SSE
SPOT 3 Rocket 4.1 20:03:45 11° SE 20:08:30 42° ENE 20:13:21 10° N
NOSS 7 (H) 4.1 20:05:19 10° SW 20:08:44 89° E 20:11:40 10° NE
Cosmos 1726 Rocket 3.8 20:05:16 10° SSW 20:09:39 75° WNW 20:14:01 10° N
ARIANE 5 R/B 4.3 20:09:20 12° E 20:11:48 18° ENE 20:14:46 10° NNE
Ariane Rocket 3.0 20:08:49 10° SSE 20:13:53 84° ENE 20:18:58 10° NNW
Cosmos 2322 4.0 20:09:42 10° NNW 20:15:21 69° WSW 20:20:57 10° SSE
Cosmos 2228 4.3 20:11:37 10° SSW 20:15:47 44° WNW 20:19:56 10° N
Cosmos 1408 2.8 20:12:39 10° NNW 20:16:12 67° W 20:19:43 10° S
Orbus 7S? 3.1 20:15:50 10° SW 20:18:33 60° SE 20:23:23 10° ENE
CZ-4C R/B 3.6 20:15:05 10° WSW 20:20:00 42° NW 20:25:56 10° NE
RESURS DK-1 2.4 20:17:11 10° SSW 20:21:13 57° ESE 20:25:18 10° NE
Landsat 7 4.3 20:20:38 16° SE 20:24:07 43° ENE 20:28:38 10° N
NOSS 7 (E) 4.3 20:23:34 10° SW 20:27:23 82° SE 20:30:31 10° NE
Meteor 2-1 Rocket 4.3 20:22:13 10° S 20:27:59 67° E 20:33:52 10° NNE
Cosmos 2058 2.9 20:25:02 10° N 20:29:16 89° WSW 20:33:19 11° S
Cosmos 482 Debris 4.1 20:30:23 10° W 20:32:45 39° NNW 20:33:56 18° NE
SL-16 R/B 3.7 20:29:49 10° N 20:34:21 23° NE 20:37:53 14° E
USA 186 4.3 20:32:05 10° SW 20:34:34 20° W 20:37:02 10° NW
Cosmos 2058 Rocket 3.4 20:31:29 10° SSW 20:35:48 66° WNW 20:40:09 10° N
Cosmos 1980 4.0 20:30:31 10° NNW 20:36:07 54° ENE 20:39:44 21° SE
COSMOS 2487 3.7 20:32:52 10° SW 20:36:07 42° WNW 20:39:24 10° N
Cosmos 614 Rocket 4.1 20:31:13 10° S 20:36:10 51° ESE 20:41:07 10° NNE
Cosmos 1992 Rocket 4.5 20:31:47 10° NNW 20:36:55 59° WSW 20:42:01 10° S
BREEZE-M DEB (TANK) 3.8 20:33:27 10° WSW 20:37:30 88° NNW 20:52:30 10° ENE
Cosmos 2360 Rocket 4.4 20:36:19 10° NW 20:40:37 23° WSW 20:44:52 10° SSW
Cosmos 2151 3.6 20:39:30 10° N 20:43:34 39° ENE 20:45:17 27° ESE
IRIDIUM 104 4.4 20:40:01 13° SSE 20:44:31 60° E 20:49:40 10° N
COSMOS 2428 3.2 20:39:15 10° NNW 20:44:54 60° WSW 20:49:49 14° S
Meteor 2-3 Rocket 4.3 20:40:04 10° N 20:45:31 41° ENE 20:48:26 24° SE
Cosmos 2344 3.5 20:38:27 10° SSW 20:45:55 79° SE 20:53:52 10° NE
Cosmos 1076 Rocket 3.4 20:43:05 10° N 20:47:28 76° E 20:50:07 23° SSE
FALCON 9 DEB 3.0 20:44:09 10° SW 20:47:32 65° SSE 20:49:44 20° ENE
ATLAS 3B R/B 2.9 20:40:47 10° NW 20:47:47 73° SW 20:53:12 19° SSE
Cosmos 192 4.3 20:44:42 10° NNW 20:49:41 72° ENE 20:52:27 26° SE
USA 215 3.3 20:45:38 21° ESE 20:50:17 82° NNE 20:56:52 10° NW
Cosmos 1812 Rocket 3.7 20:47:57 21° SSE 20:50:44 53° E 20:55:06 10° NNE
Resurs 01 Rocket 1.7 20:50:18 18° S 20:53:35 78° WSW 20:58:05 10° NNW
IRIDIUM 114 4.3 20:49:08 14° S 20:53:39 72° E 20:58:52 10° N
Cosmos 1818 3.5 20:48:22 10° SSW 20:53:48 81° SE 20:59:18 10° NE
Cosmos 1455 3.6 20:51:17 10° SW 20:54:48 38° WNW 20:58:20 10° N
Cosmos 44 3.5 20:50:51 10° SW 20:55:59 86° NW 21:01:25 10° NE
Cosmos 407 Rocket 3.8 20:53:35 22° SSE 20:56:30 42° ESE 21:01:20 10° NE
ERS-1 Rocket 3.9 20:54:40 25° ESE 20:56:36 34° ENE 21:01:05 10° N
Cosmos 2219 Rocket 3.3 20:52:34 10° NW 20:57:52 41° WSW 21:02:59 11° S
NOSS 0 Rocket 4.0 20:52:49 10° NNW 20:59:04 79° WSW 21:03:07 23° SSE
Meteor 2-21 4.4 20:55:40 10° N 21:01:44 72° ENE 21:05:27 25° SSE
IRIDIUM 103 4.3 20:58:16 14° S 21:02:47 86° E 21:08:03 10° N
Cosmos 1633 2.5 20:59:48 10° N 21:03:24 63° E 21:04:10 48° SE
Cosmos 1356 3.9 21:00:47 10° NNW 21:04:09 55° W 21:05:42 28° SSW
CARTOSAT-1 4.0 21:04:22 35° ESE 21:05:34 45° ENE 21:09:42 10° N
IGS 5A 3.7 21:04:09 24° S 21:06:32 67° WSW 21:10:42 10° NNW
Lacrosse 5 rocket 3.5 21:05:29 10° WNW 21:08:59 25° N 21:12:38 10° NE
Cosmos 405 Rocket 3.6 21:06:16 10° NNW 21:10:11 49° W 21:12:30 22° SSW
Cosmos 909 Rocket 4.1 21:05:55 10° SW 21:12:16 85° NW 21:18:48 10° NE
Cosmos 1023 Rocket 4.5 21:12:05 29° S 21:14:27 54° ESE 21:19:24 10° NNE
COSMOS 2455 4.0 21:18:15 24° E 21:18:15 24° E 21:21:58 10° NE
SPOT 5 3.1 21:19:30 40° ESE 21:20:32 48° ENE 21:25:05 10° N
Cosmos 1140 Rocket 3.4 21:18:31 31° S 21:20:52 59° ESE 21:25:55 10° NNE
Spot 2 Rocket 3.4 21:21:43 38° SSE 21:23:44 83° ENE 21:28:51 10° NNW
Cosmos 2237 Rocket 2.2 21:19:22 10° NNW 21:25:01 76° WSW 21:27:26 35° SSE
CZ-2C R/B 3.7 21:21:29 10° N 21:25:56 75° WNW 21:28:54 21° SSW
Cosmos 2279 Rocket 4.4 21:20:44 10° SSW 21:26:51 62° WNW 21:33:01 10° N
Terra 2.3 21:28:59 40° E 21:29:48 43° ENE 21:34:19 10° N
Cosmos 389 Rocket 4.1 21:33:58 15° SW 21:36:23 34° WNW 21:39:40 10° N
Cosmos 2082 4.4 21:39:13 34° E 21:39:13 34° E 21:43:34 10° NE
Cosmos 2227 Rocket 2.1 21:38:45 35° S 21:41:06 67° ESE 21:46:43 10° NNE
SPOT 1/Viking Rocket 4.0 21:38:50 30° SSW 21:41:14 57° W 21:46:25 10° NNW
Meteor 2-8 Rocket 4.4 21:42:18 43° SSE 21:44:10 63° E 21:50:13 10° NNE
ARIANE 5 R/B 2.9 21:46:52 47° SSW 21:47:51 60° W 21:52:13 10° NNW
Cosmos 2297 Rocket 2.1 21:43:48 15° SSW 21:48:30 88° WNW 21:54:13 10° NNE
Cosmos 1190 Rocket 3.9 21:47:49 36° SSW 21:50:03 89° ESE 21:55:19 10° NNE
Cosmos 2219 3.1 21:47:37 23° SSW 21:51:16 89° ESE 21:56:56 10° NNE
Cosmos 2266 Rocket 4.2 21:45:02 10° NNW 21:51:24 68° W 21:54:23 32° SSW
H-2A R/B 4.0 21:50:19 10° NNE 21:53:41 47° ENE 21:53:41 47° ENE
ATLAS 2AS CENTAUR R/B 4.4 21:52:02 10° W 21:59:21 39° NNW 22:06:26 10° NE
Timation 2 Rocket 3.9 21:54:58 16° SSW 22:00:19 88° ESE 22:06:42 10° NNE
Genesis I 3.6 21:56:41 10° NW 22:00:14 61° W 22:00:14 61° W
Cosmos 1763 Rocket 3.7 21:57:38 10° NNW 22:02:37 53° ENE 22:02:58 52° ENE
BREEZE M DEB (TANK) 4.3 21:59:04 14° SW 22:02:52 63° SE 22:18:07 10° ENE
Cosmos 1862 4.4 21:59:12 10° N 22:02:04 36° NE 22:02:04 36° NE
Cosmos-2242 3.8 22:02:37 36° WSW 22:03:53 48° WNW 22:08:04 10° N
Nadezhda 2 Rocket 4.5 21:58:12 10° N 22:04:29 69° E 22:05:45 55° SE
Cosmos 1408 Rocket 3.8 22:02:20 10° N 22:06:07 56° NE 22:06:07 56° NE
Cosmos 676 Rocket 3.8 22:07:08 74° SSE 22:07:29 78° ESE 22:12:41 10° NNE
CRYOSAT 2 4.3 22:10:15 72° E 22:10:18 72° E 22:15:12 10° N
SL-16 R/B 2.1 22:13:25 10° NNW 22:19:07 78° WSW 22:19:46 69° S
Cosmos 540 Rocket 4.0 22:17:05 10° NNW 22:22:00 44° ENE 22:22:04 44° ENE
Cosmos 1743 Rocket 4.4 22:17:59 10° N 22:21:17 41° NE 22:21:17 41° NE
Meteor 2-15 Rocket 4.3 22:22:07 66° SE 22:22:43 71° E 22:28:46 10° NNE
NOSS 3-1 (C) 4.1 22:18:33 10° NW 22:25:50 69° NE 22:28:42 44° ESE
Cosmos 1244 Rocket 4.4 22:19:30 10° N 22:25:55 89° ENE 22:27:02 64° S
SL-08 ROCKET BODY 4.3 22:21:14 10° N 22:27:20 69° ENE 22:27:52 65° ESE
Cosmos 2221 3.4 22:30:07 44° NNE 22:30:07 44° NNE 22:33:08 10° NNE
SL-08 R/B 4.3 22:24:54 10° N 22:31:05 73° E 22:31:43 67° ESE
USA 215 4.0 22:32:58 35° SW 22:33:43 36° SW 22:39:39 10° WNW
Cosmos 44 Rocket 4.2 22:36:37 42° NE 22:36:37 42° NE 22:40:08 10° NE
ERS-1 Rocket 4.0 22:34:39 34° WSW 22:35:20 36° W 22:39:59 10° NNW
Aureole 1 Rocket 4.4 22:38:07 38° ENE 22:38:07 38° ENE 22:41:26 10° NE
Cosmos 1553 Rocket 3.8 22:39:11 72° ESE 22:39:25 73° E 22:45:30 10° NNE
Cosmos 1500 Rocket 4.2 22:37:19 10° N 22:40:50 53° N 22:40:50 53° N
Cosmos 1741 Rocket 4.5 22:48:41 51° NE 22:48:41 51° NE 22:52:47 10° NNE
Cosmos 1943 3.6 22:43:16 10° NNW 22:48:46 51° NE 22:48:59 50° ENE
ALOS 2 4.1 22:49:56 28° NE 22:49:56 28° NE 22:52:52 10° N
Lacrosse 5 rocket 3.0 22:45:16 10° NW 22:49:08 31° NNE 22:49:47 30° NE
Cosmos 1417 Rocket 4.4 22:49:46 74° ESE 22:50:02 75° E 22:56:19 10° NNE
Cosmos 1850 Rocket 4.4 22:54:08 56° NE 22:54:08 56° NE 22:58:18 10° NNE
Meteor 2-2 Rocket 4.5 23:00:50 61° WSW 23:01:21 64° WNW 23:07:03 10° N
COSMOS 2455 3.0 23:01:18 53° WSW 23:02:38 68° NW 23:08:39 10° NNE
SeaSat 1 2.9 23:00:32 10° NNE 23:04:24 56° NNE 23:04:24 56° NNE
Terra 3.5 23:07:51 25° W 23:07:51 25° W 23:11:39 10° NW
Cosmos 2315 Rocket 4.5 23:10:31 47° E 23:10:31 47° E 23:16:12 10° NNE
Cosmos 2263 Rocket 2.6 23:24:26 54° NE 23:24:26 54° NE 23:28:45 10° NNE
Cosmos 2227 Rocket 4.1 23:20:55 10° WSW 23:25:39 26° NW 23:30:23 10° N
Cosmos 841 Rocket 4.2 23:27:36 10° NNW 23:31:35 46° WNW 23:31:35 46° WNW
USA 229 DEB 3.7 23:25:39 10° NW 23:32:58 82° SW 23:33:33 76° S
USA 229 3.7 23:25:45 10° NW 23:33:04 82° SW 23:33:40 76° S
Cosmos 1603 3.9 23:27:33 10° NNW 23:32:30 65° NW 23:32:30 65° NW
Meteor 2-17 Rocket 4.4 23:27:47 10° N 23:33:43 83° NNE 23:33:43 83° NNE
USA 281 4.0 23:33:03 38° E 23:34:39 44° NE 23:40:48 10° NNW
Cosmos 1745 Rocket 4.4 23:35:01 10° NNW 23:41:07 51° W 23:41:13 51° W
Cosmos 1709 Rocket 4.0 23:40:48 10° NNW 23:46:44 74° WNW 23:46:44 74° WNW
NOSS 3-1 (A) 4.0 23:43:21 10° NW 23:50:51 73° SW 23:51:29 70° SSW
